TimeEDT,TemperatureF,Dew PointF,Humidity,Sea Level PressureIn,VisibilityMPH,Wind Direction,Wind SpeedMPH,Gust SpeedMPH,PrecipitationIn,Events,Conditions,WindDirDegrees,DateUTC
12:15 AM,64.4,64.4,100,30.23,4.0,Calm,Calm,-,N/A,,Clear,0,2013-08-21 04:15:00
12:35 AM,64.4,64.4,100,30.23,4.0,Calm,Calm,-,N/A,,Clear,0,2013-08-21 04:35:00
12:55 AM,62.6,62.6,100,30.23,2.0,Calm,Calm,-,N/A,,Clear,0,2013-08-21 04:55:00
1:15 AM,62.6,62.6,100,30.23,2.5,Calm,Calm,-,N/A,,Clear,0,2013-08-21 05:15:00
1:35 AM,62.6,62.6,100,30.23,2.5,Calm,Calm,-,N/A,,Clear,0,2013-08-21 05:35:00
1:55 AM,62.6,62.6,100,30.23,3.0,Calm,Calm,-,N/A,,Clear,0,2013-08-21 05:55:00
2:15 AM,62.6,62.6,100,30.22,2.0,Calm,Calm,-,N/A,,Clear,0,2013-08-21 06:15:00
2:35 AM,62.6,62.6,100,30.22,3.0,Calm,Calm,-,N/A,,Clear,0,2013-08-21 06:35:00
2:55 AM,62.6,62.6,100,30.22,3.0,Calm,Calm,-,N/A,,Clear,0,2013-08-21 06:55:00
3:15 AM,62.6,62.6,100,30.22,4.0,Calm,Calm,-,N/A,,Clear,0,2013-08-21 07:15:00
3:35 AM,62.6,62.6,100,30.21,4.0,Calm,Calm,-,N/A,,Clear,0,2013-08-21 07:35:00
3:55 AM,60.8,60.8,100,30.22,4.0,Calm,Calm,-,N/A,,Clear,0,2013-08-21 07:55:00
4:15 AM,60.8,60.8,100,30.22,4.0,Calm,Calm,-,N/A,,Clear,0,2013-08-21 08:15:00
4:35 AM,60.8,60.8,100,30.21,4.0,Calm,Calm,-,N/A,,Clear,0,2013-08-21 08:35:00
4:55 AM,60.8,60.8,100,30.22,4.0,Calm,Calm,-,N/A,,Clear,0,2013-08-21 08:55:00
5:15 AM,60.8,60.8,100,30.21,5.0,Calm,Calm,-,N/A,,Clear,0,2013-08-21 09:15:00
5:35 AM,60.8,60.8,100,30.21,4.0,Calm,Calm,-,N/A,,Clear,0,2013-08-21 09:35:00
5:55 AM,60.8,60.8,100,30.21,4.0,Calm,Calm,-,N/A,,Clear,0,2013-08-21 09:55:00
6:15 AM,60.8,60.8,100,30.22,5.0,Calm,Calm,-,N/A,,Clear,0,2013-08-21 10:15:00
6:35 AM,60.8,60.8,100,30.22,3.0,Calm,Calm,-,N/A,,Clear,0,2013-08-21 10:35:00
6:55 AM,60.8,60.8,100,30.22,4.0,Calm,Calm,-,N/A,,Clear,0,2013-08-21 10:55:00
7:15 AM,60.8,60.8,100,30.23,4.0,Calm,Calm,-,N/A,,Clear,0,2013-08-21 11:15:00
7:35 AM,62.6,62.6,100,30.23,5.0,Calm,Calm,-,N/A,,Clear,0,2013-08-21 11:35:00
7:55 AM,62.6,62.6,100,30.24,2.5,Calm,Calm,-,N/A,,Clear,0,2013-08-21 11:55:00
8:15 AM,64.4,64.4,100,30.24,7.0,Calm,Calm,-,N/A,,Clear,0,2013-08-21 12:15:00
8:35 AM,64.4,64.4,100,30.25,3.0,Calm,Calm,-,N/A,,Clear,0,2013-08-21 12:35:00
8:55 AM,66.2,66.2,100,30.25,4.0,Calm,Calm,-,N/A,,Clear,0,2013-08-21 12:55:00
9:15 AM,66.2,66.2,100,30.25,5.0,Calm,Calm,-,N/A,,Clear,0,2013-08-21 13:15:00
9:35 AM,68.0,68.0,100,30.25,7.0,Calm,Calm,-,N/A,,Clear,0,2013-08-21 13:35:00
9:55 AM,73.4,66.2,78,30.25,10.0,Calm,Calm,-,N/A,,Clear,0,2013-08-21 13:55:00
10:15 AM,73.4,68.0,83,30.25,10.0,Calm,Calm,-,N/A,,Clear,0,2013-08-21 14:15:00
10:35 AM,73.4,68.0,83,30.25,10.0,Calm,Calm,-,N/A,,Partly Cloudy,0,2013-08-21 14:35:00
10:55 AM,75.2,69.8,83,30.25,10.0,SW,6.9,-,N/A,,Clear,230,2013-08-21 14:55:00
11:15 AM,77.0,68.0,74,30.26,10.0,WSW,9.2,-,N/A,,Partly Cloudy,240,2013-08-21 15:15:00
11:35 AM,78.8,69.8,74,30.25,10.0,Calm,Calm,-,N/A,,Clear,0,2013-08-21 15:35:00
11:55 AM,78.8,69.8,74,30.25,10.0,West,6.9,-,N/A,,Partly Cloudy,270,2013-08-21 15:55:00
12:15 PM,77.0,69.8,78,30.25,10.0,WSW,3.5,-,N/A,,Scattered Clouds,240,2013-08-21 16:15:00
12:35 PM,78.8,69.8,74,30.24,10.0,West,4.6,-,N/A,,Scattered Clouds,260,2013-08-21 16:35:00
12:55 PM,77.0,69.8,78,30.23,10.0,West,3.5,-,N/A,,Partly Cloudy,270,2013-08-21 16:55:00
1:15 PM,78.8,69.8,74,30.23,10.0,SW,3.5,-,N/A,,Clear,230,2013-08-21 17:15:00
1:35 PM,78.8,69.8,74,30.23,10.0,Calm,Calm,-,N/A,,Partly Cloudy,0,2013-08-21 17:35:00
1:55 PM,78.8,69.8,74,30.22,10.0,SW,5.8,-,N/A,,Clear,230,2013-08-21 17:55:00
2:15 PM,80.6,69.8,70,30.22,10.0,West,5.8,-,N/A,,Clear,260,2013-08-21 18:15:00
2:35 PM,78.8,69.8,74,30.21,10.0,West,5.8,-,N/A,,Scattered Clouds,280,2013-08-21 18:35:00
2:55 PM,78.8,69.8,74,30.19,10.0,WSW,4.6,-,N/A,,Partly Cloudy,240,2013-08-21 18:55:00
3:15 PM,78.8,69.8,74,30.18,10.0,SW,4.6,-,N/A,,Clear,230,2013-08-21 19:15:00
3:35 PM,78.8,69.8,74,30.18,10.0,WSW,4.6,-,N/A,,Clear,240,2013-08-21 19:35:00
3:55 PM,78.8,69.8,74,30.19,10.0,WNW,3.5,-,N/A,,Partly Cloudy,290,2013-08-21 19:55:00
4:15 PM,78.8,69.8,74,30.17,10.0,West,3.5,-,N/A,,Clear,270,2013-08-21 20:15:00
4:35 PM,78.8,69.8,74,30.17,10.0,West,3.5,-,N/A,,Clear,260,2013-08-21 20:35:00
4:55 PM,80.6,69.8,70,30.18,10.0,SSW,8.1,-,N/A,,Partly Cloudy,210,2013-08-21 20:55:00
5:15 PM,80.6,71.6,74,30.17,10.0,SW,3.5,-,N/A,,Clear,230,2013-08-21 21:15:00
5:35 PM,78.8,69.8,74,30.16,10.0,Calm,Calm,-,N/A,,Scattered Clouds,0,2013-08-21 21:35:00
5:55 PM,78.8,69.8,74,30.14,10.0,Calm,Calm,-,N/A,,Partly Cloudy,0,2013-08-21 21:55:00
6:15 PM,78.8,69.8,74,30.17,10.0,SW,3.5,-,N/A,,Partly Cloudy,220,2013-08-21 22:15:00
6:35 PM,77.0,69.8,78,30.16,10.0,South,4.6,-,N/A,,Partly Cloudy,180,2013-08-21 22:35:00
6:55 PM,75.2,69.8,83,30.15,10.0,SSW,10.4,-,N/A,,Clear,210,2013-08-21 22:55:00
7:15 PM,71.6,64.4,78,30.17,10.0,West,11.5,21.9,N/A,,Mostly Cloudy,270,2013-08-21 23:15:00
7:35 PM,69.8,64.4,83,30.17,10.0,Calm,Calm,-,N/A,,Partly Cloudy,0,2013-08-21 23:35:00
7:55 PM,68.0,64.4,88,30.18,10.0,NE,5.8,-,N/A,,Partly Cloudy,50,2013-08-21 23:55:00
8:15 PM,68.0,66.2,94,30.18,10.0,ENE,5.8,-,N/A,,Scattered Clouds,60,2013-08-22 00:15:00
8:35 PM,68.0,66.2,94,30.18,10.0,East,8.1,-,N/A,,Mostly Cloudy,80,2013-08-22 00:35:00
8:55 PM,66.2,66.2,100,30.18,10.0,ENE,3.5,-,N/A,,Mostly Cloudy,60,2013-08-22 00:55:00
9:15 PM,66.2,66.2,100,30.18,10.0,SE,3.5,-,N/A,,Clear,140,2013-08-22 01:15:00
9:35 PM,68.0,66.2,94,30.18,10.0,Calm,Calm,-,N/A,,Clear,0,2013-08-22 01:35:00
9:55 PM,66.2,66.2,100,30.18,10.0,Calm,Calm,-,N/A,,Clear,0,2013-08-22 01:55:00
10:15 PM,66.2,66.2,100,30.19,10.0,Calm,Calm,-,N/A,Rain,Light Rain,0,2013-08-22 02:15:00
10:35 PM,66.2,66.2,100,30.19,7.0,South,3.5,-,N/A,Rain,Light Rain,180,2013-08-22 02:35:00
10:55 PM,66.2,66.2,100,30.19,5.0,South,8.1,-,0.06,,Mostly Cloudy,190,2013-08-22 02:55:00
11:15 PM,66.2,66.2,100,30.18,10.0,SSW,5.8,-,N/A,,Partly Cloudy,210,2013-08-22 03:15:00
11:35 PM,66.2,66.2,100,30.19,10.0,Calm,Calm,-,N/A,,Clear,0,2013-08-22 03:35:00
11:55 PM,64.4,64.4,100,30.20,10.0,SSW,4.6,-,N/A,,Scattered Clouds,210,2013-08-22 03:55:00